This is the latest recevied weather packets stored in our database for station/object DM1HF-13. If no packets are shown the sender has not sent any weather packets the latest 10 day(s).
| Time | Temp. | Humidity | Pressure | Rain* | Wind** | Luminosity | Snow |
|---|---|---|---|---|---|---|---|
| 1777936516 | 15° C | 84% | 1013.7 hPa | 0 mm | - | 0 W/m² | - |
| 1777936216 | 15° C | 84% | 1013.7 hPa | 0 mm | - | 0 W/m² | - |
| 1777935916 | 15° C | 84% | 1013.8 hPa | 0 mm | - | 0 W/m² | - |
| 1777935616 | 15° C | 84% | 1013.8 hPa | 0 mm | - | 0 W/m² | - |
| 1777935316 | 15° C | 83% | 1013.8 hPa | 0 mm | - | 0 W/m² | - |
| 1777935016 | 15° C | 83% | 1013.9 hPa | 0 mm | - | 0 W/m² | - |
| 1777934716 | 15.56° C | 82% | 1013.9 hPa | 0 mm | - | 0 W/m² | - |
| 1777934416 | 15.56° C | 83% | 1014 hPa | 0 mm | - | 0 W/m² | - |
| 1777934116 | 15.56° C | 82% | 1014 hPa | 0 mm | - | 0 W/m² | - |
| 1777933816 | 15.56° C | 82% | 1014 hPa | 0 mm | - | 0 W/m² | - |
| 1777933516 | 15.56° C | 82% | 1013.9 hPa | 0 mm | - | 0 W/m² | - |
| 1777933216 | 15.56° C | 82% | 1013.9 hPa | 0 mm | - | 0 W/m² | - |
| 1777932916 | 15.56° C | 81% | 1013.9 hPa | 0 mm | - | 0 W/m² | - |
| 1777932616 | 15.56° C | 81% | 1013.8 hPa | 0 mm | - | 0 W/m² | - |
| 1777932316 | 15.56° C | 82% | 1013.7 hPa | 0 mm | - | 0 W/m² | - |
| 1777932017 | 16.11° C | 80% | 1013.7 hPa | 0 mm | - | 0 W/m² | - |
| 1777931716 | 16.11° C | 82% | 1013.9 hPa | 0 mm | - | 0 W/m² | - |
| 1777931416 | 16.11° C | 82% | 1013.8 hPa | 0 mm | - | 0 W/m² | - |
| 1777931116 | 16.11° C | 82% | 1013.6 hPa | 0 mm | - | 0 W/m² | - |
| 1777930816 | 16.11° C | 81% | 1013.5 hPa | 0 mm | - | 0 W/m² | - |
| 1777930516 | 16.11° C | 80% | 1013.4 hPa | 0 mm | - | 0 W/m² | - |
| 1777930216 | 16.67° C | 79% | 1013.5 hPa | 0 mm | - | 0 W/m² | - |
| 1777929916 | 16.67° C | 78% | 1013.6 hPa | 0 mm | - | 0 W/m² | - |
| 1777929616 | 16.67° C | 75% | 1013.9 hPa | 0 mm | - | 0 W/m² | - |
| 1777929316 | 17.22° C | 73% | 1014.3 hPa | 0 mm | - | 0 W/m² | - |
* Rain latest hour (hover to see other rain measurements)
** Current wind speed in m/s (hover to see current wind gust speed)